Location: Central Falls
(41.8900°N, 71.3929°W)
Time: 02:32:56
(UTC+00:00)

Vanguard 2 - Pass Details

Date: 03 December 2023
Orbit: 554 x 2918 km, 32.9° (Epoch: 01 March)

Event Time Altitude Azimuth Distance (km) Brightness Sun altitude
Rises 03:12:21 0° 244° (WSW) 6,719 12.5 -63.7°
Reaches altitude 10° 03:17:13 10° 240° (WSW) 5,576 11.9 -64.3°
Enters shadow 03:19:21 15° 237° (WSW) 5,068 11.6 -64.6°
Maximum altitude 03:32:30 52° 171° (S) 2,591 - -66.2°
Drops below altitude 10° 03:42:37 10° 99° (E) 3,792 - -67.3°
Sets 03:45:16 0° 94° (E) 4,498 - -67.6°
